Погода в Пересыпкине 1-ом

Россия / Тамбовская область     52°54′39″N   42°54′07″E
темп.,
°C
ветер,
м/с
пор.,
м/с
влажн.,
%
обл.,
%
осадки,
мм/ч
давл.,
гПа
погр.,
м
17 мая, вт
вт1700:00+6з410915 0.0 1006234
03:00+4з49955 0.0 1006227
06:00+5з51090100 0.0 1005399
09:00+9з6872100 0.0 10041122
12:00+10зюз6865100 0.1 10041369
15:00+6з5992100 1.6 1004980
18:00+6з6893100 0.5 1003963
21:00+6з61195100 1.6 1003605
18 мая, ср
ср1800:00+6з5996100 0.3 1003531
03:00+6зсз4697100 0.3 1004482
06:00+6зсз359787 0.1 1005367
09:00+8сз457646 0.1 1006714
12:00+12ссз4562100 0.0 10071511
15:00+12ссз567283 0.5 10091127
18:00+9ссз678499 0.3 1011674
21:00+7ссз3689100 0.3 1013297
19 мая, чт
чт1900:00+6сз35935 0.0 1013111
03:00+4зсз38955 0.0 1014174
06:00+6ссз488767 0.0 1014364
09:00+10сз5662100 0.0 10151089
12:00+12зсз6856100 0.0 10141823
15:00+11зсз7107399 0.6 10131640
18:00+9ссз488076 1.3 10141039
21:00+6с38900 1.4 1015175
20 мая, пт
пт2000:00+4сз34905 0.0 101672
03:00+2сз489013 0.0 1017147
06:00+4сз49845 0.0 1018341
09:00+8сз710605 0.0 10181356
12:00+9ссз61062100 0.0 10181694
15:00+11сз7105276 0.0 10182023
18:00+10сз466090 0.0 1017793
21:00+6сз1168100 0.1 101710
21 мая, сб
сб2100:00+6ю1171100 0.0 101610
03:00+5ю3476100 0.0 101463
06:00+6юв3779100 0.0 1012267
09:00+7юв3692100 0.3 1010310
12:00+7вюв5895100 2.6 1008834
15:00+7в5893100 3.6 1007543
18:00+8в5885100 0.0 1007719
21:00+6в3892100 0.0 1007316